Regional Weather Roundup
Issued by NWS

Home | Current Version | Previous Version | Text Only | Print | Product List | Glossary Off
Versions: 1 2 3 4 5 6 7 8 9 10 11 12 13 14 15 16 17 18 19 20 21 22 23 24 25 26 27 28 29 30 31 32 33 34 35 36 37 38 39 40 41 42 43 44 45 46 47 48 49 50

000
ASUS43 KDMX 020607
RWRIA

WEATHER ROUNDUP FOR IOWA
NATIONAL WEATHER SERVICE DES MOINES IA
100 AM CDT SAT AUG 02 2014

NOTE: "FAIR" INDICATES FEW OR NO CLOUDS BELOW 12,000 FEET WITH NO
SIGNIFICANT WEATHER AND/OR OBSTRUCTIONS TO VISIBILITY.

* - THESE STATIONS ARE NOT NWS STATIONS...THUS NOT UNDER NWS
QUALITY CONTROL.  THEY ALSO DO NOT REPORT WEATHER SUCH
AS PRECIPITATION OR FOG.

IAZ001>003-012>014-020>022-031>034-043>046-020700-
   NORTHWEST IOWA

CITY           SKY/WX    TMP DP  RH WIND       PRES   REMARKS
CARROLL *        N/A     59  57  94 W5        30.13S
CHEROKEE *     CLEAR     61  61 100 CALM      30.13S
DENISON *      CLEAR     61  61 100 CALM      30.12S
LE MARS *      CLEAR     59  59 100 CALM      30.12F
ORANGE CITY *  CLEAR     66  57  72 CALM      30.13S
SHELDON *      CLEAR     57  57 100 E3        30.12F
SIOUX CITY     PTCLDY    65  60  84 E6        30.11F
6HR MIN TEMP:  65; 6HR MAX TEMP:  82;

SPENCER        CLEAR     58  56  93 CALM      30.13S
6HR MIN TEMP:  58; 6HR MAX TEMP:  81;

STORM LAKE *   CLEAR     64  61  88 SW6       30.15R
$$

IAZ055>058-069>071-079>083-090>094-020700-
   SOUTHWEST IOWA

CITY           SKY/WX    TMP DP  RH WIND       PRES   REMARKS
ATLANTIC *     CLEAR     61  61 100 N5        30.13S
AUDUBON *      CLEAR     59  55  88 CALM      30.15S
CLARINDA *     CLEAR     63  63 100 NE3       30.14R FOG
COUNCIL BLFS * CLEAR     66  63  88 E6        30.12S
CRESTON *      CLEAR     64  61  88 E5        30.14R
HARLAN  *      CLEAR     61  61 100 CALM      30.17S FOG
LAMONI         CLEAR     64  62  93 CALM      30.13R
6HR MIN TEMP:  64; 6HR MAX TEMP:  77;

RED OAK *      CLEAR     64  63  94 CALM      30.12S
SHENANDOAH *   CLEAR     63  63 100 CALM      30.12S
$$

IAZ047>049-059>061-072>074-084-020700-
   CENTRAL IOWA

CITY           SKY/WX    TMP DP  RH WIND       PRES   REMARKS
AMES           CLEAR     62  59  90 CALM      30.13R
6HR MIN TEMP:  61; 6HR MAX TEMP:  80;

ANKENY *       CLEAR     61  61 100 CALM      30.13R
CHARITON *     CLEAR     64  61  88 CALM      30.13R
DES MOINES     CLEAR     70  60  70 CALM      30.12R
6HR MIN TEMP:  70; 6HR MAX TEMP:  82;

GRINNELL*      CLEAR     64  61  88 CALM      30.13S
KNOXVILLE *    CLEAR     68  59  73 CALM      30.11S
MARSHALLTOWN   CLEAR     64  63  96 CALM      30.11S
6HR MIN TEMP:  64; 6HR MAX TEMP:  81;

PELLA *        CLEAR     64  61  90 CALM      30.13S
PERRY *          N/A     61  61 100 CALM      30.13S
$$

IAZ004>006-015-016-023>025-035-036-020700-
   NORTH CENTRAL IOWA

CITY           SKY/WX    TMP DP  RH WIND       PRES   REMARKS
ALGONA *       CLEAR     66  61  82 S3        30.13R
CLARION *      CLEAR     61  59  94 S6        30.14R
ESTHERVILLE    CLEAR     60  57  89 SW5       30.13R
6HR MIN TEMP:  60; 6HR MAX TEMP:  79;

FORT DODGE *   PTCLDY    63  61  94 CALM      30.14R
MASON CITY     CLEAR     59  58  96 CALM      30.14R
6HR MIN TEMP:  59; 6HR MAX TEMP:  80;

FOREST CITY *  CLEAR     59  59 100 CALM      30.13R FOG
IOWA FALLS *     N/A     64  61  88 CALM      30.14R
$$

IAZ007>011-017>019-026>030-037>042-050>054-066-020700-
   NORTHEAST IOWA

CITY           SKY/WX    TMP DP  RH WIND       PRES   REMARKS
CEDAR RAPIDS   CLEAR     63  63 100 S5        30.10S
6HR MIN TEMP:  62; 6HR MAX TEMP:  77; 6HR PCP: TRACE;

CHARLES CITY * CLEAR     61  59  94 CALM      30.13S
CLINTON *      CLEAR     61  57  88 CALM      30.13S
DECORAH *      PTCLDY    64  59  82 S6        30.12S
DUBUQUE        CLEAR     62  59  90 S6        30.12S
6HR MIN TEMP:  61; 6HR MAX TEMP:  78;

MONTICELLO *     N/A     63  59  88 E3        30.11S
OELWEIN *      CLEAR     63  61  94 SE8       30.13R
WATERLOO       CLEAR     62  59  90 CALM      30.10S
6HR MIN TEMP:  62; 6HR MAX TEMP:  80;

$$

IAZ064-065-067-068-078-020700-
   EAST CENTRAL IOWA

CITY           SKY/WX    TMP DP  RH WIND       PRES   REMARKS
DAVENPORT      CLEAR     63  60  90 SE5       30.11F
6HR MIN TEMP:  63; 6HR MAX TEMP:  80; 6HR PCP: TRACE;

IOWA CITY      CLEAR     66  62  87 CALM      30.11F
6HR MIN TEMP:  66; 6HR MAX TEMP:  81;

MT. PLEASANT * CLEAR     61  59  94 CALM      30.10F
MUSCATINE *    CLEAR     63  61  94 CALM      30.10F
QUAD CITIES    CLEAR     63  60  90 CALM      30.10F
6HR MIN TEMP:  63; 6HR MAX TEMP:  76; 6HR PCP:  0.10;

$$

IAZ062-063-075>077-085>089-095>099-020700-
   SOUTHEAST IOWA

CITY           SKY/WX    TMP DP  RH WIND       PRES   REMARKS
BURLINGTON     CLEAR     63  61  93 CALM      30.10S
6HR MIN TEMP:  62; 6HR MAX TEMP:  79; 6HR PCP:  0.25;

FAIRFIELD *    CLEAR     64  61  88 SW3       30.11S
FORT MADISON * CLEAR     63  63 100 CALM      30.11F
KEOKUK *       CLEAR     61  61 100 CALM      30.09F
OSKALOOSA *      N/A     65  62  89 SE6       30.12S
CENTERVILLE *  CLEAR     61  61 100 CALM      30.13S
OTTUMWA        CLEAR     65  62  90 S5        30.11S
6HR MIN TEMP:  63; 6HR MAX TEMP:  80;

WASHINGTON *   CLEAR     63  63 100 SW3       30.11S
$$

ABBREVIATIONS USED IN REMARKS
   TC - TEMPERATURES IN CELSIUS
  WCI - WIND CHILL INDEX
   HX - HEAT INDEX
  VSB - VISIBILITY
$$



USA.gov is the U.S. government's official web portal to all federal, state and local government web resources and services.